TimeMST,TemperatureF,Dew PointF,Humidity,Sea Level PressureIn,VisibilityMPH,Wind Direction,Wind SpeedMPH,Gust SpeedMPH,PrecipitationIn,Events,Conditions,WindDirDegrees,DateUTC
12:53 AM,48.9,18.0,29,29.69,10.0,SW,16.1,-,N/A,,Overcast,220,2013-03-04 07:53:00
1:53 AM,46.9,18.0,32,29.70,10.0,SW,8.1,-,N/A,,Overcast,230,2013-03-04 08:53:00
2:53 AM,48.0,18.0,30,29.68,10.0,SSW,10.4,-,N/A,,Overcast,210,2013-03-04 09:53:00
3:53 AM,45.0,19.0,36,29.70,10.0,SW,5.8,-,N/A,,Overcast,230,2013-03-04 10:53:00
4:53 AM,45.0,19.9,37,29.69,10.0,SSW,8.1,-,N/A,,Overcast,200,2013-03-04 11:53:00
5:53 AM,45.0,19.0,36,29.71,10.0,SSW,9.2,-,N/A,,Overcast,200,2013-03-04 12:53:00
6:53 AM,44.1,19.0,37,29.72,10.0,Calm,Calm,-,N/A,,Overcast,0,2013-03-04 13:53:00
7:53 AM,45.0,19.9,37,29.75,10.0,Calm,Calm,-,N/A,,Mostly Cloudy,0,2013-03-04 14:53:00
8:53 AM,48.9,19.0,31,29.73,10.0,SW,12.7,-,N/A,,Overcast,230,2013-03-04 15:53:00
9:53 AM,53.1,24.1,32,29.70,10.0,West,18.4,-,N/A,,Mostly Cloudy,260,2013-03-04 16:53:00
10:53 AM,55.9,24.1,29,29.68,10.0,WSW,15.0,23.0,0.00,,Mostly Cloudy,240,2013-03-04 17:53:00
11:53 AM,57.9,21.0,24,29.68,10.0,SW,21.9,34.5,N/A,,Mostly Cloudy,230,2013-03-04 18:53:00
12:53 PM,57.9,23.0,26,29.68,10.0,WNW,20.7,24.2,N/A,,Overcast,290,2013-03-04 19:53:00
1:53 PM,59.0,21.9,24,29.70,10.0,West,16.1,26.5,N/A,,Overcast,270,2013-03-04 20:53:00
2:53 PM,59.0,21.0,23,29.69,10.0,WNW,20.7,27.6,N/A,,Scattered Clouds,300,2013-03-04 21:53:00
3:53 PM,60.1,19.9,21,29.72,10.0,WNW,12.7,25.3,N/A,,Mostly Cloudy,300,2013-03-04 22:53:00
4:53 PM,59.0,19.0,21,29.76,10.0,NW,12.7,31.1,N/A,,Scattered Clouds,320,2013-03-04 23:53:00
5:53 PM,55.9,17.1,22,29.80,10.0,WNW,12.7,-,N/A,,Clear,290,2013-03-05 00:53:00
6:53 PM,50.0,17.1,27,29.89,10.0,Calm,Calm,-,N/A,,Clear,0,2013-03-05 01:53:00
7:53 PM,39.0,14.0,36,30.00,10.0,Calm,Calm,-,N/A,,Clear,0,2013-03-05 02:53:00
8:53 PM,37.0,16.0,42,30.01,10.0,Calm,Calm,-,N/A,,Clear,0,2013-03-05 03:53:00
9:53 PM,36.0,17.1,46,30.01,10.0,Variable,3.5,-,N/A,,Clear,0,2013-03-05 04:53:00
10:53 PM,32.0,17.1,54,30.05,10.0,Calm,Calm,-,N/A,,Clear,0,2013-03-05 05:53:00